Location: Carlisle
(34.5501°N, 84.5969°W)
Time: 22:34:07
(UTC+00:00)

Max Valier Satellite - Visible Passes

Search period start: 31 March 2023 00:00
Search period end: 10 April 2023 00:00
Orbit: 454 x 467 km, 97.2° (Epoch: 30 March)

Date Brightness Start Highest point End Pass type
(mag) Time Alt. Az. Time Alt. Az. Time Alt. Az.
31 Mar ? 01:09:08 12° SSE 01:12:19 86° ENE 01:15:45 10° N visible
01 Apr ? 00:37:44 10° SE 00:40:41 28° ENE 00:43:38 10° NNE visible
01 Apr ? 02:12:27 10° WSW 02:13:41 12° W 02:14:56 10° WNW visible
02 Apr ? 01:38:40 10° SSW 01:41:44 32° W 01:44:50 10° NNW visible
03 Apr ? 01:06:26 10° SSE 01:09:51 79° ENE 01:13:16 10° N visible
04 Apr ? 00:35:10 10° SE 00:38:02 26° ENE 00:40:56 10° NNE visible
04 Apr ? 02:09:28 10° WSW 02:11:00 13° W 02:12:34 10° WNW visible
05 Apr ? 01:35:43 10° SSW 01:38:53 35° W 01:42:03 10° NNW visible
06 Apr ? 01:03:26 10° SSE 01:06:49 71° ENE 01:10:14 10° N visible
07 Apr ? 00:32:04 10° SE 00:34:51 23° ENE 00:37:37 10° NNE visible
07 Apr ? 02:05:55 10° SW 02:07:46 14° W 02:09:37 10° WNW visible
08 Apr ? 01:32:15 10° S 01:35:28 39° W 01:38:42 10° NNW visible
09 Apr ? 00:59:52 10° SSE 01:03:14 62° ENE 01:06:38 10° N visible
